Wind_Speed
27 26 33 29 29 28 29 27 22 14 15 20 20 18 15 13 16 28 24 28 25 20 15 12 8 4 3 7 4 14 16 10 7 7 9 4 5 4 5 4 2 4 2 2 1 4 3
30 32 32 31 30 27 29 27 21 16 22 22 19 17 20 34 33 27 28 27 20 14 11 9 6 7 7 9 8 14 13 13 13 12 10 8 4 3 6 3 3 2 2 1 1 2 1
31 33 34 33 33 31 32 30 42 39 31 28 23 28 32 34 31 31 24 18 15 15 13 15 21 22 17 3 9 11 13 17 15 9 5 7 4 5 4 4 1 2 2 1 5 4 3
32 32 33 33 34 35 36 38 39 44 38 30 32 31 32 31 27 24 21 19 16 15 14 9 6 11 6 6 7 14 8 13 13 12 14 7 11 7 5 3 5 4 4 3 2 5 4
29 31 32 34 34 37 38 40 41 41 38 36 35 31 26 25 23 21 20 18 16 14 8 4 5 7 3 3 6 12 13 6 7 9 10 8 7 4 5 4 4 6 1 2 7 4 4
27 29 29 30 32 34 34 35 35 33 33 28 27 24 22 20 20 22 22 18 22 8 7 7 11 6 6 4 6 8 6 8 6 3 5 8 6 4 4 5 2 1 3 3 4 3 3
25 28 29 31 32 32 33 30 29 28 27 25 22 20 17 13 11 6 1 1 6 8 19 5 2 5 1 5 7 11 8 4 5 8 5 5 7 3 1 3 3 4 1 3 4 3 5
24 25 24 25 26 28 27 28 27 26 25 22 19 18 19 19 8 3 9 8 2 6 7 8 4 4 3 4 4 15 11 5 6 4 4 6 4 2 1 2 2 2 0 3 5 3 3
23 23 22 21 21 21 22 21 22 21 20 20 18 13 10 10 16 28 25 10 6 3 6 5 3 4 3 5 3 8 6 2 5 5 5 5 3 2 1 1 2 0 1 1 4 7 2
20 21 21 21 20 18 18 17 16 17 15 17 19 18 16 6 4 7 7 6 3 1 5 10 7 5 3 1 5 3 4 2 6 3 3 5 1 1 1 1 2 3 2 0 4 5 3
18 18 19 20 20 19 17 16 14 12 11 11 12 15 14 16 4 5 3 4 2 1 5 6 6 4 3 5 1 8 5 5 4 3 3 1 4 1 1 1 2 2 2 2 1 1 3
18 17 17 17 19 19 19 18 15 13 11 10 11 12 10 5 10 5 3 2 2 6 2 5 3 5 3 5 3 3 4 6 2 4 4 2 1 2 1 1 0 2 3 5 3 1 2
17 18 17 17 18 18 19 18 18 16 13 9 9 9 10 8 3 4 3 2 5 6 2 2 2 3 2 4 4 5 4 5 3 4 4 4 1 1 1 2 2 6 5 3 5 3 3
17 17 17 17 17 17 18 19 19 18 12 7 5 4 7 9 6 3 2 5 8 2 3 2 1 1 4 5 4 4 2 3 2 4 3 3 5 1 1 2 4 2 4 4 4 2 5
15 16 16 16 17 17 18 19 20 19 8 6 2 2 3 10 6 1 5 6 7 6 4 5 1 3 3 2 1 3 2 3 3 2 3 2 3 1 2 2 3 2 2 2 5 1 2
15 15 16 17 17 18 18 19 20 20 9 4 1 1 3 11 5 2 5 4 2 2 1 1 3 2 4 1 1 1 2 2 3 2 2 4 3 0 1 2 3 1 5 3 2 1 4
16 16 16 17 18 19 20 22 22 22 12 3 0 3 4 11 2 5 4 3 3 3 1 1 3 3 2 3 2 1 2 2 4 3 2 3 3 3 1 5 6 2 0 3 3 2 2
15 16 18 18 18 20 22 24 24 23 15 3 3 2 5 4 4 2 3 3 2 3 0 1 2 2 3 3 1 2 4 4 5 6 3 2 4 3 6 2 1 2 4 4 3 3 1
14 15 17 18 19 21 22 24 26 23 17 3 2 2 4 2 3 2 0 2 2 1 0 1 1 0 1 2 1 4 3 1 6 5 5 5 0 4 4 4 3 3 4 3 3 2 6
12 13 16 17 18 20 22 24 27 23 16 4 3 3 4 5 1 5 2 1 2 1 2 2 1 2 1 1 2 1 2 0 4 4 4 5 3 5 6 3 3 4 5 6 5 3 3
9 10 12 15 18 19 21 23 25 25 15 4 4 0 2 3 4 2 2 3 2 1 1 0 0 3 4 1 1 3 3 3 1 1 3 3 4 4 6 10 6 11 14 10 13 11 8
8 9 11 12 15 17 20 22 24 25 14 7 3 2 2 1 2 1 3 3 4 2 4 2 3 2 5 5 7 4 4 4 5 2 4 2 2 1 5 8 6 9 16 17 18 18 19
10 8 10 10 10 13 16 18 20 22 15 6 3 2 2 2 2 2 2 2 2 0 2 2 4 2 3 8 6 7 6 3 4 7 6 4 2 2 5 3 9 9 8 11 5 4 16
10 10 9 7 8 10 12 14 16 17 17 7 4 2 3 2 0 2 1 3 3 3 2 1 4 4 2 3 4 1 1 3 4 5 3 5 4 2 4 7 2 3 1 8 10 6 15
13 11 10 8 7 7 9 10 12 13 12 10 6 3 2 2 2 3 2 3 4 3 3 3 3 2 2 4 3 6 2 1 2 3 4 3 4 2 2 2 10 3 1 5 4 6 7
15 15 11 9 8 6 6 7 8 8 9 8 7 5 3 2 3 1 1 3 2 2 3 2 1 1 3 2 2 1 3 2 1 1 5 4 2 5 3 2 5 1 1 2 2 3 5
17 18 13 10 9 7 6 6 7 6 4 3 3 3 2 0 3 3 3 3 3 1 2 2 2 2 2 2 1 3 4 2 2 2 4 3 1 10 8 4 9 8 4 2 2 2 4
14 14 11 9 8 8 7 7 7 7 3 1 2 4 3 2 5 7 4 4 0 2 2 1 1 1 2 3 3 3 3 3 2 4 6 6 6 5 5 3 9 4 3 4 1 1 4
12 13 12 11 9 7 6 7 6 7 5 5 4 5 6 5 5 7 12 15 15 10 3 2 1 2 4 2 2 1 3 2 4 3 1 3 6 5 11 8 3 3 5 4 3 6 6
Wind_Direction
33 37 39 47 45 47 51 56 100 118 124 121 125 127 129 125 123 130 139 137 135 123 121 128 134 128 63 52 46 349 6 25 53 90 61 69 60 104 101 100 79 78 149 80 343 295 284
32 43 47 47 43 45 53 67 72 110 109 111 105 103 99 118 128 135 134 130 129 122 125 132 140 107 77 75 347 1 21 57 65 75 64 50 111 118 95 77 72 130 102 286 293 329 49
37 42 41 48 53 59 65 54 47 73 114 111 109 107 103 119 126 126 127 123 119 114 111 121 108 89 67 132 17 26 42 49 52 79 85 55 97 70 134 95 142 85 125 67 16 346 352
45 41 45 48 58 68 58 55 57 67 95 87 92 102 112 115 120 119 115 110 115 111 107 107 94 82 88 19 32 43 53 58 64 74 81 74 81 96 56 115 29 52 62 10 341 355 7
42 45 47 51 54 57 57 60 71 71 81 96 100 102 100 102 104 107 106 102 100 91 101 102 52 89 71 6 18 16 29 28 49 62 59 67 70 79 34 70 28 12 17 1 325 38 337
41 44 48 52 60 65 67 71 76 73 77 85 88 86 92 97 96 103 102 97 87 81 56 71 46 63 20 329 336 351 27 32 42 346 22 38 49 71 33 48 225 320 3 320 266 331 352
41 52 50 52 55 60 60 61 61 61 60 71 75 75 79 95 100 97 72 198 25 10 36 77 276 99 20 339 42 15 2 357 35 52 43 11 64 79 101 41 103 107 96 279 264 297 320
49 50 55 52 50 53 55 56 60 61 63 66 68 65 68 64 39 8 72 72 64 151 72 41 64 68 52 351 18 357 11 62 48 64 338 30 82 195 190 92 102 95 27 294 275 279 279
44 44 48 52 52 49 48 50 53 53 57 57 56 46 36 45 58 70 75 74 89 112 86 11 14 39 329 28 59 339 18 59 76 53 14 111 147 145 142 61 39 323 190 313 254 321 233
39 44 42 40 43 45 48 49 43 41 44 46 41 34 29 360 47 43 54 46 64 64 80 333 351 7 0 70 44 343 14 100 40 120 76 82 103 117 86 290 112 325 190 312 307 5 295
34 34 36 38 34 33 32 32 33 32 31 24 17 16 20 44 77 57 27 37 66 38 66 308 322 316 356 78 245 356 10 27 77 92 86 198 147 162 223 259 182 264 22 332 3 80 348
35 34 33 34 35 32 24 20 13 6 359 356 2 10 19 62 59 55 41 69 32 43 257 340 312 348 30 20 31 316 46 51 126 80 34 84 228 182 246 13 144 56 62 39 57 2 8
37 35 33 29 28 28 27 20 9 357 347 343 350 10 32 45 57 27 108 60 44 94 279 302 12 12 89 15 25 32 31 23 64 62 356 347 339 291 172 52 25 56 52 337 354 7 232
31 33 31 29 26 22 18 15 13 4 349 345 359 17 47 48 29 33 77 55 73 205 213 217 294 63 70 11 31 21 63 36 78 77 92 87 323 190 172 173 176 80 130 141 241 312 289
30 29 30 29 24 19 15 12 10 5 2 345 329 26 46 3 354 7 77 56 182 197 168 161 86 84 21 45 79 51 46 191 209 160 125 138 264 281 211 170 127 156 53 162 100 344 316
24 25 24 23 23 19 16 11 8 5 357 357 330 50 37 353 349 90 76 132 148 220 153 152 134 181 169 258 118 46 209 193 176 179 146 182 338 218 2 97 38 191 152 56 25 0 298
23 21 20 18 17 16 15 11 8 4 358 1 131 52 0 344 36 49 101 177 192 235 220 133 174 129 167 165 160 222 228 234 182 159 100 133 115 281 74 197 183 134 179 61 119 146 201
20 22 19 18 16 15 14 12 9 5 5 11 88 45 355 12 48 42 73 136 174 160 37 70 108 107 161 169 189 235 224 231 169 155 143 169 144 259 214 131 106 177 190 163 131 215 188
14 16 17 17 15 13 13 13 10 8 7 3 81 260 347 23 84 34 276 64 64 94 335 76 110 149 132 180 200 202 231 334 158 153 167 183 104 337 353 14 9 237 205 159 112 96 201
3 8 9 8 14 14 14 12 11 9 9 21 77 22 339 47 76 115 107 75 120 44 118 138 136 105 129 222 222 257 258 268 188 180 154 127 154 193 205 192 143 217 202 198 171 175 197
357 1 2 1 6 9 14 15 12 9 7 36 25 100 178 344 4 68 103 147 136 205 69 114 325 220 182 236 247 233 236 292 138 193 77 132 229 191 260 260 237 245 242 209 208 207 217
344 346 355 1 4 6 11 13 15 11 10 66 88 97 20 96 307 62 351 206 182 196 163 220 200 185 189 208 202 227 190 207 226 70 148 24 268 97 273 271 258 264 248 232 232 237 247
331 331 339 349 358 5 8 11 14 20 25 63 63 98 108 354 17 80 219 166 235 89 187 195 197 138 224 244 237 236 210 212 199 164 179 158 174 26 271 318 300 280 249 186 192 221 222
319 324 322 333 351 2 7 9 13 24 33 43 41 54 72 301 152 226 198 195 218 221 234 188 163 168 251 326 305 240 198 226 194 228 172 141 136 165 286 339 288 272 124 173 199 228 214
293 301 302 304 317 336 349 2 8 18 28 40 30 24 84 303 229 294 244 239 299 288 245 230 215 205 350 34 348 329 325 247 53 40 204 155 139 283 271 275 293 313 144 137 175 295 219
278 276 277 282 291 309 327 340 355 1 14 26 40 29 56 78 253 184 174 190 238 248 322 244 84 103 74 78 59 281 272 311 270 104 24 140 127 176 152 223 257 296 335 158 172 358 43
267 262 254 261 271 279 294 313 326 328 350 30 351 353 41 321 266 156 205 198 158 177 227 261 170 141 48 105 195 216 263 200 271 223 154 104 145 221 228 267 286 266 255 261 3 272 333
253 245 238 241 248 257 272 292 309 304 278 228 254 287 218 219 271 203 230 189 111 218 198 228 1 25 71 173 176 224 207 245 259 172 177 173 157 193 184 223 265 171 59 175 246 253 279
222 220 221 221 219 242 274 292 298 301 278 234 243 230 241 211 254 247 244 251 243 230 151 243 261 170 203 139 221 157 238 221 199 258 180 249 203 186 192 214 228 231 253 294 266 280 284
Height
796 791 787 779 775 771 767 763 761 761 762 765 768 772 772 774 776 781 789 792 796 798 801 803 806 806 806 816 827 823 819 814 812 811 812 814 819 825 834 838 840 841 844 844 846 847 846
802 798 793 787 782 777 774 770 763 765 768 769 770 771 776 780 786 791 794 797 799 800 802 805 807 806 807 824 826 824 820 814 812 812 816 816 820 824 835 842 841 845 845 846 847 846 846
808 805 800 796 789 784 783 779 772 767 774 777 777 779 784 788 794 797 799 800 801 803 803 806 808 807 812 831 827 824 820 818 818 817 818 820 821 825 834 842 846 846 846 846 849 847 845
816 813 808 802 799 795 792 789 785 783 785 786 789 792 794 797 800 801 802 802 805 805 806 808 809 807 827 829 828 825 823 823 821 820 820 822 824 830 839 845 849 851 852 848 848 847 847
823 820 816 812 808 806 802 799 797 796 796 797 799 801 802 804 804 805 805 806 808 808 808 809 810 810 832 830 830 828 826 825 824 824 823 823 826 842 846 850 854 860 850 856 850 851 850
829 825 823 821 816 813 811 808 806 806 806 807 807 807 807 807 807 807 807 810 810 809 810 811 813 818 832 836 832 831 829 828 827 826 827 831 841 852 861 860 853 855 857 861 861 853 854
834 830 827 826 823 820 818 817 815 813 812 812 812 813 813 812 811 811 810 809 812 818 822 833 836 836 836 835 834 832 830 829 829 835 845 847 859 868 865 863 863 865 865 867 863 856 856
839 836 833 831 829 826 824 822 820 819 818 817 816 816 816 816 813 810 809 816 826 827 837 835 836 836 836 836 836 833 832 835 839 853 850 854 864 864 863 861 861 864 865 863 859 857 856
843 841 838 835 833 831 829 827 825 824 822 821 820 818 817 817 815 813 816 823 825 826 834 840 839 839 840 839 844 842 838 841 847 854 858 855 861 861 860 862 861 863 862 864 868 861 861
845 843 842 839 837 834 832 831 830 829 827 825 823 821 819 816 819 820 824 826 826 826 856 852 844 843 842 841 846 843 843 845 850 855 858 860 862 861 863 861 863 860 863 864 867 867 858
850 847 843 841 840 837 835 834 832 831 829 828 826 824 821 818 821 823 828 826 826 827 881 853 848 843 842 844 847 845 844 842 852 856 857 859 863 862 862 860 862 861 863 867 868 876 880
853 851 849 845 842 839 837 835 833 832 831 828 826 825 823 823 823 827 827 827 828 861 882 863 851 849 845 847 847 846 846 846 853 857 858 862 862 863 861 861 861 865 868 876 879 876 876
856 853 850 848 845 843 840 837 834 832 831 829 828 827 825 825 828 827 827 829 862 880 864 857 855 852 851 852 849 850 852 858 862 873 890 867 861 861 861 860 862 870 889 890 871 873 850
857 855 853 851 848 846 843 840 837 833 831 830 829 829 829 828 829 829 829 843 873 859 859 854 854 852 853 855 853 853 856 862 862 869 886 882 871 860 861 860 865 872 878 889 868 867 869
861 858 855 853 851 848 845 842 839 835 831 830 830 830 830 830 830 829 836 873 866 858 853 854 852 852 855 853 853 854 857 863 860 861 866 875 862 859 861 859 862 868 873 874 891 898 890
862 860 858 855 853 850 847 843 840 836 832 830 830 830 832 830 830 830 847 856 854 854 850 850 848 852 854 856 855 856 857 855 857 858 861 868 874 862 860 861 864 863 871 874 891 865 858
865 862 859 857 854 851 848 844 840 836 832 830 830 834 832 829 830 837 862 863 856 852 850 850 854 855 856 855 857 859 856 854 855 860 860 868 873 865 863 865 865 869 871 878 880 879 865
867 865 862 859 856 852 849 845 840 835 832 831 831 841 831 829 843 860 857 850 848 850 850 851 852 853 854 857 857 859 858 855 855 858 859 864 876 881 859 864 863 862 864 870 870 868 887
868 866 864 861 858 854 850 846 841 836 833 831 838 839 830 828 859 860 852 850 849 851 851 852 852 853 855 856 857 859 855 851 856 856 861 864 873 885 859 867 865 863 865 866 873 877 878
869 867 865 862 860 856 853 848 843 838 835 834 839 851 841 840 855 854 850 851 851 851 852 853 854 854 856 858 860 857 855 851 855 853 852 857 873 865 868 848 857 860 860 864 860 872 860
870 868 866 863 861 857 854 850 846 841 837 837 845 857 859 858 855 853 851 851 851 850 853 854 854 854 855 855 858 860 858 854 855 854 859 861 866 877 866 862 861 853 848 855 859 842 841
871 869 867 864 863 860 856 853 849 844 840 839 850 854 860 862 860 853 856 853 850 849 852 853 854 852 859 858 855 851 855 855 852 859 859 868 864 871 872 858 861 853 841 842 841 837 833
870 869 867 866 864 862 860 856 852 848 844 846 851 853 854 862 860 856 855 852 849 849 850 850 853 854 857 855 853 851 851 849 849 857 863 867 869 870 862 857 856 838 819 825 832 831 819
868 867 867 866 864 863 861 859 857 853 851 852 853 853 855 855 860 855 851 852 849 849 848 848 852 852 849 848 847 848 851 854 857 857 857 872 870 869 866 862 836 799 809 815 818 817 816
865 865 865 865 864 863 862 861 859 857 855 854 855 855 858 858 859 853 853 853 851 850 850 848 847 848 849 850 853 849 848 847 859 862 861 862 865 862 866 875 829 791 811 815 807 795 801
862 861 862 862 862 861 861 861 860 858 856 856 856 857 858 862 855 850 851 850 852 852 851 847 848 848 850 856 855 844 838 833 840 860 866 862 858 857 874 860 829 796 801 805 806 796 801
857 857 857 859 860 860 860 860 859 858 856 856 856 857 858 862 853 851 854 851 851 851 851 847 846 848 850 860 856 861 851 846 839 844 862 870 871 859 856 860 833 801 801 803 800 799 797
850 853 854 854 856 857 857 857 857 857 856 855 855 856 857 857 850 847 847 848 849 850 848 846 846 850 857 856 857 855 862 848 845 842 852 856 862 862 860 863 843 803 805 800 796 795 795
844 848 850 851 851 854 854 854 855 855 855 854 854 853 854 855 847 842 841 841 840 840 844 844 843 846 845 851 857 854 852 853 841 833 838 841 826 838 834 820 801 803 800 796 798 797 795